Terminal Aerodrome Forecast
Issued by NWS

Home | Current Version | Previous Version | Text Only | Print | Product List | Glossary On
Versions: 1 2 3 4 5 6 7 8 9 10 11 12 13 14 15 16 17 18 19 20 21 22 23 24 25 26 27 28 29
000
FTUS41 KOKX 230200 AAA
TAFGON
TAF AMD
KGON 230238Z 2303/2324 32012G19KT P6SM FEW040 BKN250
     FM230400 34008KT P6SM SCT250
     FM231700 24010KT P6SM FEW070
     FM232300 30005KT P6SM FEW070=

USA.gov is the U.S. government's official web portal to all federal, state and local government web resources and services.